This is the latest recevied weather packets stored in our database for station/object IU7LMH-13. If no packets are shown the sender has not sent any weather packets the latest 10 day(s).
| Time | Temp. | Humidity | Pressure | Rain* | Wind** | Luminosity | Snow |
|---|---|---|---|---|---|---|---|
| 1778228744 | 15.56° C | 95% | 1011.5 hPa | 5.84 mm | - | - | - |
| 1778228259 | 15.56° C | 95% | 1011.4 hPa | 24.89 mm | - | - | - |
| 1778228017 | 15.56° C | 95% | 1011.2 hPa | 7.11 mm | - | - | - |
| 1778227899 | 15.56° C | 95% | 1011.3 hPa | 7.11 mm | - | - | - |
| 1778227780 | 15.56° C | 95% | 1011.1 hPa | 7.37 mm | - | - | - |
| 1778227542 | 15.56° C | 95% | 1011.3 hPa | 7.37 mm | - | - | - |
| 1778226817 | 15.56° C | 95% | 1011.2 hPa | 7.37 mm | - | - | - |
| 1778226579 | 15.56° C | 95% | 1011.1 hPa | 7.37 mm | - | - | - |
| 1778225742 | 15.56° C | 95% | 1011 hPa | 6.1 mm | - | - | - |
| 1778224658 | 15.56° C | 94% | 1010.9 hPa | 3.81 mm | - | - | - |
| 1778223458 | 15.56° C | 94% | 1010.9 hPa | 2.03 mm | - | - | - |
| 1778223217 | 15.56° C | 94% | 1010.9 hPa | 2.03 mm | - | - | - |
| 1778221896 | 16.11° C | 94% | 1010.7 hPa | 1.27 mm | - | - | - |
| 1778221777 | 16.11° C | 94% | 1010.9 hPa | 1.27 mm | - | - | - |
| 1778220341 | 16.11° C | 94% | 1010.8 hPa | 0.76 mm | - | - | - |
| 1778219262 | 16.11° C | 94% | 1010.7 hPa | 0.25 mm | - | - | - |
| 1778218658 | 16.11° C | 94% | 1010.5 hPa | 0 mm | - | - | - |
| 1778217457 | 16.67° C | 94% | 1010.4 hPa | 12.45 mm | - | - | - |
| 1778217344 | 16.67° C | 94% | 1010.5 hPa | 0.25 mm | - | - | - |
| 1778217217 | 16.67° C | 94% | 1010.4 hPa | 0.25 mm | - | - | - |
| 1778215897 | 16.67° C | 93% | 1010.5 hPa | 0.51 mm | - | - | - |
| 1778215418 | 16.67° C | 93% | 1010.3 hPa | 0.51 mm | - | - | - |
| 1778215058 | 16.11° C | 93% | 1010.2 hPa | 0.51 mm | - | - | - |
| 1778212657 | 16.67° C | 92% | 1010.2 hPa | 0.51 mm | - | - | - |
| 1778212545 | 16.67° C | 92% | 1010 hPa | 0.51 mm | - | - | - |
* Rain latest hour (hover to see other rain measurements)
** Current wind speed in m/s (hover to see current wind gust speed)